Regional Weather Roundup
Issued by NWS Charleston, SC

Home | Current Version | Previous Version | Text Only | Print | Product List | Glossary On
Versions: 1 2 3 4 5 6 7 8 9 10 11 12 13 14 15 16 17 18 19 20 21 22 23 24 25 26 27 28 29 30 31 32 33 34 35 36 37 38 39 40 41 42 43 44 45 46 47 48 49 50
000
ASUS42 KCHS 010427
RWRCHS

REGIONAL WEATHER ROUNDUP
NATIONAL WEATHER SERVICE CHARLESTON SC
1200 AM EDT WED JUL 01 2015

NOTE: "FAIR" INDICATES FEW OR NO CLOUDS BELOW 12,000 FEET WITH NO
SIGNIFICANT WEATHER AND/OR OBSTRUCTIONS TO VISIBILITY.

NOT ALL STATIONS ARE QUALITY CONTROLLED BY THE NATIONAL
WEATHER SERVICE. USE DATA WITH CAUTION...ESPECIALLY
DEWPOINT OBSERVATIONS.

SCZ027-030-031-034>040-042>050-010500-
...SOUTHEAST SOUTH CAROLINA...

CITY           SKY/WX    TMP DP  RH WIND       PRES   REMARKS
N CHARLESTON   PTCLDY    72  69  90 SW6       30.00F
WATERFRONT PAR   N/A     75  71  87 VRB2      29.97F
MOUNT PLEASANT LGT RAIN  73  72  94 CALM      30.00S
JOHNS ISLAND   FAIR      73  70  88 SW6       30.01R
PINOPOLIS      NOT AVBL
MONCKS CORNER  FAIR      72  68  88 CALM      30.00S
SUMMERVILLE    FAIR      70  70 100 CALM      30.02S
BEAUFORT MCAS  CLEAR     74  69  85 SW5       30.02R
BEAUFORT ARPT  FAIR      77  72  83 SW7       30.01S
HILTON HEAD IS CLEAR     75  72  88 S3        30.02F
WALTERBORO     PTCLDY    70  68  94 SW5       30.02S
ALLENDALE      FAIR      70  70 100 CALM      30.01R

...SOUTHERN MIDLANDS AND PEE DEE...

CITY           SKY/WX    TMP DP  RH WIND       PRES   REMARKS
GEORGETOWN     NOT AVBL
KINGSTREE      NOT AVBL
ORANGEBURG     MOCLDY    71  69  93 S5        29.99F FOG
BARNWELL       FAIR      72  72 100 S5        30.00S
AIKEN          NOT AVBL
MANNING        RAIN      70  70 100 S8        29.99F
COLUMBIA       PTCLDY    72  69  90 SW3       29.97F
SUMTER         CLOUDY    70  68  94 S5        29.97R
FLORENCE       MOCLDY    71  69  93 SW8       29.98R
MYRTLE BEACH   MOCLDY    75  66  73 SW5       29.99F
N MYRTLE BEACH MOCLDY    78  68  71 S10       29.98S

$$

GAZ063-065-086>088-099>101-113>116-118-119-134>141-150-010500-
...SOUTHEAST GEORGIA...

CITY           SKY/WX    TMP DP  RH WIND       PRES   REMARKS
SAVANNAH ARPT  PTCLDY    73  69  87 SW7       30.02S
HUNTER AAF     CLEAR     74  71  91 SW5       30.00S
FORT STEWART   CLEAR     73  69  88 SW7       30.01R
STATESBORO     PTCLDY    71  32  23 SW6       30.03R
SYLVANIA       PTCLDY    72  72 100 CALM      30.03R
CLAXTON        FAIR      72  70  94 CALM      30.03S

...CSRA...CENTRAL AND FAR SOUTHEAST GEORGIA...

CITY           SKY/WX    TMP DP  RH WIND       PRES   REMARKS
THOMSON        PTCLDY    73  72  98 CALM      30.04S
AUGUSTA-BUSH   PTCLDY    70  69  97 S3        29.99S
AUGUSTA-DANIEL PTCLDY    72  68  87 SW6       30.00S
SWAINSBORO     FAIR     N/A N/A N/A CALM      30.03S
VIDALIA        RAIN      72  70  94 SW7       30.04S
EASTMAN        FAIR      72  72 100 CALM      30.06S
HAZLEHURST     FAIR      73  73 100 CALM      30.04R
ALMA           MOCLDY    72  70  93 SW3       30.04S
WAYCROSS       CLOUDY    75  74  96 SW5       30.05S
JESUP          FAIR      73  72  94 W5        30.04F
BAXLEY         FAIR      73  72  94 CALM      30.04S
BRUNSWICK      CLEAR     73  72  94 SW8       30.05S
SAINT SIMONS   CLEAR     76  71  85 SW10      30.04R

$$

SCZ027-028-034-036>038-045-046-048>050-GAZ119-141-010500-
...LAKE AND SUPPLEMENTAL COASTAL OBSERVATIONS...

STATION/POSITION TIME  TEMP    WIND        PRES    WAVE   SWELL
                       AIR SEA DIR/SP/G            HT/PER HT/PER/DIR
                 (UTC) (F)     (DEG/KT/KT) (MB)    (FT/S) (FT/S/D)
UPR LAKE MARION  NOT AVBL
WINYAH BAY       0300   75     190/  4     1015.0R
LAKE MURRAY      0300   75     210/  9/ 13 1014.6R
ACE BASIN NERRS  NOT AVBL
FORT PULASKI     0400   76 84  230/  4/  6 1016.9S
SAPELO ISLAND    0400   76     210/  8     1017.0S

$$

ANZ835-935-AMZ111-154-330-350-352-354-370-450-454-472-010500-
...C-MAN AND BUOY OBSERVATIONS...

STATION/POSITION TIME  TEMP    WIND        PRES    WAVE   SWELL
                       AIR SEA DIR/SP/G            HT/PER HT/PER/DIR
                 (UTC) (F)     (DEG/KT/KT) (MB)    (FT/S) (FT/S/D)
BUOY 41004       0350   82 83  240/ 16/ 17 1015.4F   4/ 5   2/ 9
BUOY 41008       0350   78 79  210/ 10/ 12 1016.7F   2/ 9   2/150/ 9
FOLLY BEACH CMAN 0400   75     250/  4/  6 1016.1F
CAPERS NEARSHORE 0308   80     250/ 14/ 17 1016.2R
FRIPP NEARSHORE  0300   80     240/ 10/ 12 1016.1R


STATION/POSITION TIME  TEMP    WIND        PRES    WAVE   SWELL
                       AIR SEA DIR/SP/G            HT/PER HT/PER/DIR
                 (UTC) (F)     (DEG/KT/KT) (MB)    (FT/S) (FT/S/D)
5E ST. MARYS GA  0321      78                N/A     1/ 9
FRYING PAN BUOY  0350   82 80  210/ 17/ 19 1015.9R   4/ 5   2/120/ 8
BUOY 41025       0350   82 81  230/ 23/ 29 1014.5S   5/ 6   2/230/12
CAPE LOOKOUT NC  0400   80     220/ 13/ 18 1014.9R
BUOY 41002       0350   82 80  240/ 17/ 19 1018.8R   6/ 7   3/170/ 8
BUOY 41010       0320   80 84  260/  6/  8 1020.9R
ST AUGUSTINE FL  0400   75 74  230/  4/  5 1019.9R


$$



USA.gov is the U.S. government's official web portal to all federal, state and local government web resources and services.